Вернуться в каталог

ARIANE 1 DEB

LostGTO
NORAD 40782·DEBRIS·🇫🇷 France

Запущен Dec 24, 1979 с Guiana Space Centre

Loading…

TLE

УстаревшееSource: Space-Track

Эпоха: Nov 25, 2022, 06:30 UTC

1 40782U 79104AK  22329.27100876  .00000318  00000-0  15225-1 0  9999
2 40782  15.9966 173.0020 7134709 178.3295 357.2648  2.18870600173220

Отслеживайте ARIANE 1 DEB в реальном времени с AllMySat

Download on the App Store